Route Details
Issaquah
Time Location Temp F Dew point F Wind Dir Wind Speed kts
10:24 PM Fauntleroy 46 37 140 9
10:23 PM Fauntleroy 45 37 181 12
10:22 PM Fauntleroy 45 37 102 7
10:21 PM Fauntleroy 45 37 78 7
10:20 PM Fauntleroy 45 37 138 10
10:19 PM Fauntleroy 45 37 132 8
10:18 PM Fauntleroy 45 37 155 8
10:17 PM Fauntleroy 45 37 170 10
10:16 PM Fauntleroy 45 37 143 5
10:15 PM Fauntleroy 45 37 150 8
10:14 PM Fauntleroy 46 37 145 7
10:13 PM Fauntleroy 46 37 213 9
10:12 PM Fauntleroy 46 37 144 10
10:11 PM Fauntleroy 46 37 195 12
10:10 PM Fauntleroy 46 38 161 7
10:09 PM Fauntleroy 46 38 157 8
10:08 PM 47.5232 -122.3999 46 38 153 8
10:07 PM 47.5226 -122.4029 46 38 143 19
10:06 PM 47.5212 -122.4063 46 38 166 19
10:05 PM 47.5207 -122.4082 46 38 166 19
10:04 PM 47.5202 -122.4093 46 38 168 20
10:03 PM 47.5197 -122.4104 46 38 167 20
10:02 PM 47.5192 -122.4116 46 38 159 20
10:01 PM 47.5187 -122.4132 46 38 173 19
10:00 PM 47.5184 -122.4153 45 38 183 18
9:59 PM 47.5180 -122.4186 45 38 183 15
9:58 PM 47.5176 -122.4237 45 38 185 13
9:57 PM 47.5172 -122.4293 45 38 190 11
9:56 PM 47.5168 -122.4348 45 38 195 12
9:55 PM 47.5164 -122.4404 45 38 199 15
9:54 PM 47.5160 -122.4459 45 38 198 11
9:53 PM 47.5156 -122.4513 45 38 195 11
9:52 PM 47.5151 -122.4565 45 38 182 9
9:51 PM 47.5145 -122.4613 45 37 210 8
9:50 PM 47.5124 -122.4638 45 37 179 5
9:49 PM Vashon 45 38 188 4
9:48 PM Vashon 45 37 145 6
9:47 PM Vashon 45 38 138 5
9:46 PM Vashon 45 37 161 6
9:45 PM Vashon 45 37 139 6
9:34 PM 47.5151 -122.4941 45 38 176 9
9:33 PM 47.5142 -122.4945 45 38 167 11
9:32 PM Southworth 45 38 158 13
9:27 PM Southworth 45 38 153 14
9:26 PM Southworth 45 38 156 13
9:25 PM Southworth 45 38 166 13
9:24 PM Southworth 45 38 157 14
9:23 PM Southworth 45 38 158 13
9:22 PM Southworth 45 38 166 12
9:21 PM Southworth 45 38 159 13
9:11 PM 47.5136 -122.4624 45 38 162 9
9:10 PM 47.5130 -122.4631 45 38 164 5
9:09 PM Vashon 45 38 181 3
9:08 PM Vashon 45 38 147 3
9:07 PM Vashon 45 38 160 7
9:06 PM Vashon 45 38 148 8
9:05 PM Vashon 45 38 131 6
9:04 PM Vashon 45 38 133 5
9:03 PM Vashon 45 38 165 5
9:02 PM Vashon 45 37 139 3
9:01 PM Vashon 45 37 239 5
9:00 PM Vashon 45 37 162 6
8:59 PM Vashon 45 37 152 5
8:43 PM Fauntleroy 45 37 106 9
8:42 PM Fauntleroy 45 38 158 8
8:41 PM Fauntleroy 45 38 126 11
8:40 PM Fauntleroy 45 38 177 8
8:39 PM Fauntleroy 45 38 129 7
8:38 PM Fauntleroy 45 38 169 9
8:37 PM Fauntleroy 45 38 176 8
8:36 PM Fauntleroy 45 38 159 8
8:35 PM Fauntleroy 45 38 149 8
8:34 PM Fauntleroy 45 38 142 8
8:33 PM Fauntleroy 45 38 158 7
8:32 PM Fauntleroy 45 38 98 8
8:31 PM Fauntleroy 45 38 171 7
8:30 PM Fauntleroy 45 38 185 8
8:29 PM Fauntleroy 45 38 162 8
8:28 PM Fauntleroy 45 38 197 7
8:27 PM Fauntleroy 45 38 160 7
8:26 PM Fauntleroy 46 38 163 11
8:25 PM 47.5232 -122.3982 45 38 173 11
8:24 PM 47.5230 -122.4007 45 38 184 11
8:23 PM 47.5225 -122.4058 45 38 213 11
8:22 PM 47.5216 -122.4125 45 38 199 11
8:21 PM 47.5207 -122.4192 45 38 205 9
8:20 PM 47.5195 -122.4259 45 38 215 12
8:19 PM 47.5183 -122.4326 45 38 209 9
8:18 PM 47.5170 -122.4392 45 38 211 10
8:17 PM 47.5156 -122.4457 45 38 214 7
8:16 PM 47.5143 -122.4522 44 38 202 7
8:15 PM 47.5130 -122.4583 44 38 253 4
8:14 PM 47.5118 -122.4627 44 38 165 4
8:13 PM Vashon 44 38 136 3
8:12 PM Vashon 44 38 94 3
8:11 PM Vashon 44 38 133 5
8:10 PM Vashon 44 38 124 5
8:09 PM Vashon 44 38 146 1
8:08 PM Vashon 44 38 159 3
7:56 PM 47.5151 -122.4942 44 38 192 7
7:55 PM 47.5144 -122.4946 44 38 208 5
7:54 PM Southworth 44 38 215 3
7:53 PM Southworth 44 38 226 4
7:52 PM Southworth 44 38 98 5
7:51 PM Southworth 44 38 240 5
7:50 PM Southworth 44 38 213 2
7:49 PM Southworth 45 38 188 6
7:48 PM Southworth 45 38 200 8
7:31 PM 47.5141 -122.4625 45 38 154 9
7:30 PM 47.5132 -122.4634 45 38 141 9